GLD1760 SSPS-SSGY

Flight info

Callsign GLD1760
Flight time N/A
Altitude 4500
Route DCT 2613S05240W 2501S05332W 2441S05346W DCT
Aircraft P28A/L-SDFGIRY/C

Departure

Time N/A
Airport Palmas Airport (SSPS)

Arrival

Time 2026-04-23 14:46
Airport Guaíra Airport (SSGY)
Time Latitude Longitude Altitude Speed Heading
2026-04-23 13:54 -25.35690 -53.30447 4488 ft 129 kts 330°
2026-04-23 13:54 -25.34961 -53.31017 4471 ft 130 kts 325°
2026-04-23 13:54 -25.34258 -53.31612 4447 ft 128 kts 328°
2026-04-23 13:54 -25.33503 -53.32132 4507 ft 126 kts 329°
2026-04-23 13:55 -25.32800 -53.32710 4479 ft 125 kts 327°
2026-04-23 13:55 -25.32089 -53.33270 4592 ft 128 kts 327°
2026-04-23 13:55 -25.31303 -53.33807 4643 ft 135 kts 338°
2026-04-23 13:55 -25.30458 -53.34261 4656 ft 134 kts 338°
2026-04-23 13:56 -25.29607 -53.34692 4504 ft 133 kts 339°
2026-04-23 13:56 -25.28764 -53.35076 4405 ft 131 kts 342°
2026-04-23 13:56 -25.27925 -53.35473 4394 ft 130 kts 337°
2026-04-23 13:56 -25.27131 -53.35920 4414 ft 126 kts 332°
2026-04-23 13:57 -25.26383 -53.36452 4329 ft 124 kts 328°
2026-04-23 13:57 -25.25715 -53.37033 4538 ft 124 kts 326°
2026-04-23 13:57 -25.24977 -53.37581 4471 ft 126 kts 332°
2026-04-23 13:57 -25.24211 -53.38086 4482 ft 129 kts 335°
2026-04-23 13:58 -25.23415 -53.38562 4406 ft 126 kts 332°
2026-04-23 13:58 -25.22692 -53.39067 4388 ft 124 kts 330°
2026-04-23 13:58 -25.21967 -53.39581 4417 ft 122 kts 329°
2026-04-23 13:58 -25.21271 -53.40084 4471 ft 118 kts 330°
2026-04-23 13:59 -25.20607 -53.40575 4575 ft 112 kts 330°
2026-04-23 13:59 -25.19942 -53.41042 4683 ft 119 kts 332°
2026-04-23 13:59 -25.19226 -53.41559 4721 ft 128 kts 333°
2026-04-23 13:59 -25.18422 -53.42019 4649 ft 130 kts 336°
2026-04-23 14:00 -25.17873 -53.42317 4610 ft 131 kts 336°
2026-04-23 14:00 -25.16748 -53.42876 4506 ft 133 kts 337°
2026-04-23 14:00 -25.15911 -53.43302 4536 ft 133 kts 336°
2026-04-23 14:00 -25.15098 -53.43739 4472 ft 127 kts 336°
2026-04-23 14:01 -25.14301 -53.44150 4475 ft 129 kts 338°
2026-04-23 14:01 -25.13456 -53.44543 4518 ft 131 kts 339°
2026-04-23 14:01 -25.12654 -53.44960 4516 ft 126 kts 334°
2026-04-23 14:01 -25.11879 -53.45427 4527 ft 126 kts 334°
2026-04-23 14:02 -25.11116 -53.45869 4561 ft 126 kts 336°
2026-04-23 14:02 -25.10319 -53.46261 4484 ft 126 kts 340°
2026-04-23 14:02 -25.09509 -53.46639 4589 ft 129 kts 340°
2026-04-23 14:02 -25.08676 -53.47024 4606 ft 130 kts 340°
2026-04-23 14:03 -25.07833 -53.47446 4573 ft 131 kts 338°
2026-04-23 14:03 -25.07024 -53.47900 4589 ft 129 kts 333°
2026-04-23 14:03 -25.06227 -53.48377 4623 ft 133 kts 339°
2026-04-23 14:03 -25.05363 -53.48780 4659 ft 135 kts 342°
2026-04-23 14:04 -25.04483 -53.49189 4638 ft 139 kts 340°
2026-04-23 14:04 -25.03601 -53.49606 4577 ft 135 kts 341°
2026-04-23 14:04 -25.02737 -53.50003 4575 ft 133 kts 340°
2026-04-23 14:04 -25.01895 -53.50436 4458 ft 134 kts 339°
2026-04-23 14:05 -25.01062 -53.50941 4337 ft 139 kts 328°
2026-04-23 14:05 -25.00316 -53.51625 4371 ft 140 kts 324°
2026-04-23 14:05 -24.99606 -53.52333 4477 ft 133 kts 318°
2026-04-23 14:05 -24.98982 -53.53047 4600 ft 132 kts 318°
2026-04-23 14:06 -24.98336 -53.53806 4660 ft 138 kts 317°
2026-04-23 14:06 -24.97681 -53.54539 4644 ft 131 kts 317°
2026-04-23 14:08 -24.92966 -53.60108 4667 ft 128 kts 315°
2026-04-23 14:08 -24.92375 -53.60835 4642 ft 125 kts 314°
2026-04-23 14:08 -24.91776 -53.61544 4628 ft 127 kts 318°
2026-04-23 14:09 -24.91108 -53.62161 4601 ft 127 kts 330°
2026-04-23 14:09 -24.90383 -53.62694 4609 ft 122 kts 331°
2026-04-23 14:09 -24.89668 -53.63209 4644 ft 127 kts 333°
2026-04-23 14:09 -24.88914 -53.63752 4595 ft 131 kts 324°
2026-04-23 14:10 -24.88227 -53.64440 4619 ft 134 kts 326°
2026-04-23 14:10 -24.87459 -53.65029 4606 ft 137 kts 330°
2026-04-23 14:10 -24.86686 -53.65594 4517 ft 129 kts 330°
2026-04-23 14:10 -24.85944 -53.66123 4469 ft 126 kts 331°
2026-04-23 14:11 -24.85213 -53.66626 4425 ft 123 kts 332°
2026-04-23 14:11 -24.84491 -53.67125 4325 ft 126 kts 331°
2026-04-23 14:11 -24.83760 -53.67648 4321 ft 121 kts 331°
2026-04-23 14:11 -24.83072 -53.68162 4320 ft 118 kts 329°
2026-04-23 14:12 -24.82383 -53.68671 4411 ft 123 kts 330°
2026-04-23 14:12 -24.81686 -53.69201 4477 ft 120 kts 329°
2026-04-23 14:12 -24.81012 -53.69720 4537 ft 117 kts 330°
2026-04-23 14:12 -24.80325 -53.70206 4518 ft 118 kts 331°
2026-04-23 14:13 -24.79643 -53.70722 4564 ft 120 kts 330°
2026-04-23 14:13 -24.78944 -53.71267 4583 ft 124 kts 326°
2026-04-23 14:13 -24.78287 -53.71885 4591 ft 123 kts 325°
2026-04-23 14:13 -24.77605 -53.72463 4624 ft 125 kts 327°
2026-04-23 14:14 -24.76901 -53.73014 4629 ft 125 kts 329°
2026-04-23 14:14 -24.76167 -53.73550 4633 ft 128 kts 330°
2026-04-23 14:14 -24.75679 -53.73926 4614 ft 130 kts 328°
2026-04-23 14:16 -24.70461 -53.78504 4559 ft 133 kts 320°
2026-04-23 14:16 -24.69821 -53.79248 4497 ft 135 kts 317°
2026-04-23 14:16 -24.69156 -53.79951 4476 ft 130 kts 322°
2026-04-23 14:17 -24.68464 -53.80600 4371 ft 130 kts 324°
2026-04-23 14:17 -24.67763 -53.81239 4344 ft 131 kts 324°
2026-04-23 14:17 -24.67062 -53.81859 4387 ft 128 kts 326°
2026-04-23 14:17 -24.66355 -53.82499 4422 ft 132 kts 324°
2026-04-23 14:18 -24.65622 -53.83106 4435 ft 132 kts 327°
2026-04-23 14:18 -24.64887 -53.83687 4530 ft 130 kts 326°
2026-04-23 14:18 -24.64153 -53.84274 4480 ft 134 kts 326°
2026-04-23 14:18 -24.63442 -53.84929 4468 ft 132 kts 323°
2026-04-23 14:19 -24.62742 -53.85555 4483 ft 128 kts 325°
2026-04-23 14:19 -24.62022 -53.86129 4491 ft 130 kts 329°
2026-04-23 14:19 -24.61254 -53.86662 4532 ft 128 kts 331°
2026-04-23 14:19 -24.60497 -53.87186 4525 ft 129 kts 332°
2026-04-23 14:20 -24.59734 -53.87692 4506 ft 129 kts 334°
2026-04-23 14:20 -24.58951 -53.88184 4522 ft 129 kts 334°
2026-04-23 14:20 -24.58185 -53.88682 4464 ft 128 kts 329°
2026-04-23 14:20 -24.57485 -53.89277 4434 ft 127 kts 326°
2026-04-23 14:21 -24.56782 -53.89874 4439 ft 129 kts 324°
2026-04-23 14:21 -24.56051 -53.90471 4473 ft 133 kts 327°
2026-04-23 14:21 -24.55303 -53.91048 4477 ft 131 kts 330°
2026-04-23 14:21 -24.54533 -53.91578 4515 ft 129 kts 333°
2026-04-23 14:22 -24.53786 -53.92137 4513 ft 129 kts 325°
2026-04-23 14:22 -24.53072 -53.92756 4457 ft 132 kts 324°
2026-04-23 14:22 -24.52366 -53.93360 4476 ft 126 kts 326°
2026-04-23 14:22 -24.51693 -53.94013 4433 ft 130 kts 317°
2026-04-23 14:23 -24.51042 -53.94684 4430 ft 127 kts 328°
2026-04-23 14:23 -24.50260 -53.95113 4436 ft 128 kts 340°
2026-04-23 14:23 -24.49458 -53.95489 4409 ft 126 kts 342°
2026-04-23 14:23 -24.48646 -53.95839 4359 ft 127 kts 342°
2026-04-23 14:24 -24.47838 -53.96190 4439 ft 123 kts 342°
2026-04-23 14:24 -24.47048 -53.96538 4432 ft 122 kts 344°
2026-04-23 14:24 -24.46267 -53.96925 4401 ft 127 kts 336°
2026-04-23 14:24 -24.45518 -53.97448 4421 ft 127 kts 325°
2026-04-23 14:25 -24.44835 -53.98091 4453 ft 128 kts 322°
2026-04-23 14:25 -24.44191 -53.98762 4478 ft 128 kts 322°
2026-04-23 14:25 -24.43524 -53.99407 4468 ft 128 kts 325°
2026-04-23 14:25 -24.42840 -54.00014 4517 ft 126 kts 323°
2026-04-23 14:26 -24.42153 -54.00647 4548 ft 131 kts 323°
2026-04-23 14:26 -24.41455 -54.01257 4500 ft 125 kts 324°
2026-04-23 14:26 -24.40778 -54.01847 4436 ft 125 kts 325°
2026-04-23 14:26 -24.40108 -54.02455 4460 ft 127 kts 323°
2026-04-23 14:27 -24.39441 -54.03056 4430 ft 121 kts 324°
2026-04-23 14:27 -24.38787 -54.03651 4474 ft 126 kts 323°
2026-04-23 14:27 -24.38115 -54.04264 4496 ft 124 kts 325°
2026-04-23 14:27 -24.37442 -54.04858 4480 ft 124 kts 324°
2026-04-23 14:28 -24.36774 -54.05444 4480 ft 123 kts 325°
2026-04-23 14:28 -24.36089 -54.06021 4521 ft 126 kts 326°
2026-04-23 14:28 -24.35401 -54.06621 4475 ft 126 kts 326°
2026-04-23 14:28 -24.34678 -54.07181 4485 ft 128 kts 329°
2026-04-23 14:29 -24.33933 -54.07732 4531 ft 129 kts 329°
2026-04-23 14:29 -24.33207 -54.08312 4504 ft 129 kts 326°
2026-04-23 14:29 -24.32511 -54.08920 4472 ft 127 kts 323°
2026-04-23 14:29 -24.31830 -54.09544 4489 ft 126 kts 323°
2026-04-23 14:30 -24.31143 -54.10144 4469 ft 127 kts 324°
2026-04-23 14:30 -24.30466 -54.10754 4445 ft 126 kts 324°
2026-04-23 14:30 -24.29781 -54.11366 4469 ft 128 kts 324°
2026-04-23 14:30 -24.29098 -54.11991 4467 ft 128 kts 323°
2026-04-23 14:31 -24.28429 -54.12636 4451 ft 120 kts 318°
2026-04-23 14:31 -24.27872 -54.13359 4339 ft 123 kts 310°
2026-04-23 14:31 -24.27294 -54.14040 4488 ft 122 kts 319°
2026-04-23 14:31 -24.26677 -54.14730 4458 ft 131 kts 317°
2026-04-23 14:32 -24.26049 -54.15425 4614 ft 129 kts 318°
2026-04-23 14:32 -24.25386 -54.16094 4633 ft 131 kts 322°
2026-04-23 14:32 -24.24706 -54.16751 4646 ft 129 kts 321°
2026-04-23 14:32 -24.24035 -54.17421 4399 ft 128 kts 322°
2026-04-23 14:33 -24.23372 -54.18035 4226 ft 124 kts 324°
2026-04-23 14:33 -24.22717 -54.18648 4069 ft 123 kts 322°
2026-04-23 14:33 -24.22105 -54.19273 3982 ft 122 kts 319°
2026-04-23 14:33 -24.21538 -54.19909 3856 ft 114 kts 320°
2026-04-23 14:34 -24.20918 -54.20481 3669 ft 116 kts 325°
2026-04-23 14:34 -24.20268 -54.21030 3628 ft 118 kts 326°
2026-04-23 14:34 -24.19572 -54.21556 3523 ft 124 kts 328°
2026-04-23 14:34 -24.18850 -54.22076 3361 ft 121 kts 334°
2026-04-23 14:35 -24.18128 -54.22547 3220 ft 120 kts 332°
2026-04-23 14:35 -24.17423 -54.23029 3063 ft 121 kts 328°
2026-04-23 14:35 -24.16733 -54.23537 3045 ft 115 kts 340°
2026-04-23 14:35 -24.15964 -54.23802 2794 ft 117 kts 345°
2026-04-23 14:36 -24.15190 -54.24044 2709 ft 114 kts 347°
2026-04-23 14:36 -24.14415 -54.24214 2482 ft 118 kts 357°
2026-04-23 14:36 -24.13606 -54.24277 2343 ft 114 kts
2026-04-23 14:36 -24.12825 -54.24211 2243 ft 114 kts 12°
2026-04-23 14:37 -24.12081 -54.23971 2299 ft 101 kts 32°
2026-04-23 14:37 -24.11671 -54.23347 2168 ft 104 kts 75°
2026-04-23 14:37 -24.11572 -54.22586 2107 ft 99 kts 82°
2026-04-23 14:37 -24.11441 -54.21849 2022 ft 98 kts 79°
2026-04-23 14:38 -24.11195 -54.21175 2080 ft 97 kts 64°
2026-04-23 14:38 -24.10922 -54.20527 2115 ft 92 kts 69°
2026-04-23 14:38 -24.10696 -54.19866 2065 ft 89 kts 71°
2026-04-23 14:38 -24.10490 -54.19254 2009 ft 81 kts 70°
2026-04-23 14:39 -24.10270 -54.18719 2040 ft 72 kts 64°
2026-04-23 14:39 -24.10046 -54.18220 2028 ft 74 kts 66°
2026-04-23 14:39 -24.09809 -54.17702 2018 ft 78 kts 62°
2026-04-23 14:39 -24.09527 -54.17186 2038 ft 83 kts 59°
2026-04-23 14:40 -24.09195 -54.16669 2044 ft 82 kts 53°
2026-04-23 14:40 -24.08849 -54.16189 2058 ft 79 kts 57°
2026-04-23 14:40 -24.08513 -54.15720 2061 ft 81 kts 41°
2026-04-23 14:40 -24.07963 -54.15588 2065 ft 85 kts 357°
2026-04-23 14:41 -24.07406 -54.15851 2127 ft 89 kts 327°
2026-04-23 14:41 -24.06937 -54.16270 1996 ft 85 kts 322°
2026-04-23 14:41 -24.06506 -54.16663 1996 ft 79 kts 323°
2026-04-23 14:41 -24.06098 -54.17061 1943 ft 80 kts 319°
2026-04-23 14:42 -24.05721 -54.17513 1988 ft 82 kts 300°
2026-04-23 14:42 -24.05687 -54.18180 2018 ft 96 kts 254°
2026-04-23 14:42 -24.05917 -54.18878 1987 ft 100 kts 244°
2026-04-23 14:42 -24.06237 -54.19542 2003 ft 96 kts 239°
2026-04-23 14:43 -24.06460 -54.19963 2002 ft 98 kts 237°
2026-04-23 14:43 -24.06805 -54.20600 2012 ft 97 kts 239°
2026-04-23 14:43 -24.07213 -54.21491 2054 ft 98 kts 244°
2026-04-23 14:43 -24.07501 -54.22173 1997 ft 100 kts 244°
2026-04-23 14:44 -24.07739 -54.22629 1907 ft 100 kts 236°
2026-04-23 14:44 -24.08172 -54.23188 1909 ft 95 kts 211°
2026-04-23 14:44 -24.08790 -54.23317 1794 ft 92 kts 162°
2026-04-23 14:44 -24.09314 -54.23005 1727 ft 83 kts 135°
2026-04-23 14:45 -24.09536 -54.22484 1660 ft 76 kts 87°
2026-04-23 14:45 -24.09484 -54.21903 1501 ft 78 kts 79°
2026-04-23 14:45 -24.09293 -54.21351 1364 ft 77 kts 56°
2026-04-23 14:45 -24.08995 -54.20878 1254 ft 76 kts 64°
2026-04-23 14:46 -24.08757 -54.20359 1133 ft 77 kts 63°
2026-04-23 14:46 -24.08487 -54.19864 993 ft 77 kts 60°
2026-04-23 14:46 -24.08230 -54.19385 897 ft 60 kts 55°
2026-04-23 14:46 -24.08059 -54.19067 892 ft 40 kts 61°
2026-04-23 14:47 -24.07942 -54.18846 892 ft 19 kts 59°
2026-04-23 14:47 -24.07926 -54.18797 892 ft 5 kts 103°
2026-04-23 14:47 -24.07952 -54.18778 892 ft 0 kts 152°
2026-04-23 14:48 -24.07965 -54.18771 891 ft 6 kts 150°
2026-04-23 14:48 -24.08007 -54.18743 890 ft 0 kts 145°
2026-04-23 14:48 -24.08010 -54.18736 890 ft 3 kts 128°
2026-04-23 14:48 -24.08018 -54.18730 890 ft 0 kts 148°